sat.trackr.live / text

‹ back to catalog

KUIPER-00166

NORAD 65779 · 2025-217T

PAYLOAD ACTIVE UNKNOWN

§ Identity

Operator
Country
US
Launch date
2025-09-25
Launch site
AFETR
Launch vehicle
Mass (kg)
RCS (m²)

External: N2YO · Heavens-Above · Gunter

§ Orbital elements

Epoch: 2026-09-20T11:03:39.394368Z

Period
97.30 min
Inclination
51.9033°
Eccentricity
0.0000555
Mean motion
14.79939173 rev/d
Perigee alt
629.1 km
Apogee alt
629.9 km
Semi-major
7,007.7 km
B*
-3.5522e-4
RAAN
241.8886°
Arg perigee
100.9787°
Mean anomaly
259.1238°
Rev number
5,399

§ Raw data

KUIPER-001661 65779U 25217T   26263.46087262 -.00002928  00000+0 -35522-3 0  99972 65779  51.9033 241.8886 0000555 100.9787 259.1238 14.79939173 53990

JSON: /api/v1/satellites/65779 · /tle

For live sub-satellite position, see the globe view (requires WebGL).

§ Visibility from observer

Set your observer location to see the next 7 days of passes ≥ 10°. The values pass through the URL so the page stays shareable.

No JS? Fill the form by hand. The geolocation button needs JavaScript.